Weather History for Staples, MN

Change the Weather History Date:

Saturday, April 26, 2014

  Actual Average Record
Temperature  
Mean Temperature 40 °F -  
Max Temperature 50 °F 58 °F 71 °F (2003)
Min Temperature 30 °F 34 °F 19 °F (2002)
Degree Days  
Heating Degree Days 25    
Moisture  
Dew Point 29 °F    
Average Humidity 68    
Maximum Humidity 100    
Minimum Humidity 40    
Precipitation  
Precipitation 0.00 in - - ()
Sea Level Pressure  
Sea Level Pressure 29.96 in    
Wind  
Wind Speed 5 mph (East)    
Max Wind Speed 15 mph    
Max Gust Speed 26 mph    
Visibility 10 miles    
Events Rain    
Averages and records for this station are not official NWS values.
T = Trace of Precipitation, MM = Missing Value Source: NWS Daily Summary

Daily Weather History Graph

Daily Weather History Graph

Search for Another Location

Airport:

Trip Planner

Search our weather history database for the weather conditions in past years. The results will help you decide how hot, cold, wet, or windy it might be!

Date:

Astronomy

Apr. 26, 2014 Rise Set
Actual Time 6:13 AM CDT 8:21 PM CDT
Civil Twilight 5:40 AM CDT 8:54 PM CDT
Nautical Twilight 5:00 AM CDT 9:35 PM CDT
Astronomical Twilight 4:14 AM CDT 10:20 PM CDT
Moon 4:48 AM CDT (4/26) 5:42 PM CDT (4/26)
Length of Visible Light 15h 14m
Length of Day
14h 08m
Waning Crescent, 8% of the Moon is Illuminated
Apr 26
Waning Crescent
Apr 29
New
May 6
First Quarter
May 14
Full
May 21
Last Quarter

Hourly Weather History & Observations

Time (CDT) Temp. Windchill Dew Point Humidity Pressure Visibility Wind Dir Wind Speed Gust Speed Precip Events Conditions
12:13 AM 35.6 °F 32.8 °F 30.2 °F 81% 29.94 in 10.0 mi NE 3.5 mph - N/A   Clear
12:33 AM 33.8 °F - 28.4 °F 81% 29.95 in 10.0 mi Calm Calm - N/A   Clear
12:53 AM 33.8 °F - 30.2 °F 87% 29.95 in 10.0 mi Calm Calm - N/A   Clear
1:13 AM 33.8 °F - 30.2 °F 87% 29.95 in 10.0 mi Calm Calm - N/A   Clear
1:33 AM 33.8 °F - 30.2 °F 87% 29.95 in 10.0 mi Calm Calm - N/A   Clear
1:53 AM 32.0 °F - 28.4 °F 87% 29.96 in 10.0 mi Calm Calm - N/A   Clear
2:14 AM 30.2 °F - 28.4 °F 93% 29.95 in 10.0 mi Calm Calm - N/A   Clear
2:33 AM 30.2 °F - 28.4 °F 93% 29.95 in 10.0 mi Calm Calm - N/A   Clear
2:53 AM 30.2 °F - 28.4 °F 93% 29.95 in 10.0 mi Calm Calm - N/A   Clear
3:14 AM 32.0 °F - 30.2 °F 93% 29.94 in 10.0 mi Calm Calm - N/A   Clear
3:33 AM 32.0 °F - 30.2 °F 93% 29.94 in 10.0 mi Calm Calm - N/A   Clear
3:53 AM 32.0 °F - 30.2 °F 93% 29.95 in 10.0 mi Calm Calm - N/A   Clear
4:13 AM 30.2 °F - 28.4 °F 93% 29.96 in 10.0 mi Calm Calm - N/A   Clear
4:33 AM 30.2 °F 26.7 °F 28.4 °F 93% 29.97 in 10.0 mi East 3.5 mph - N/A   Clear
4:54 AM 30.2 °F - 28.4 °F 93% 29.98 in 10.0 mi Calm Calm - N/A   Clear
5:13 AM 30.2 °F 26.7 °F 28.4 °F 93% 29.97 in 10.0 mi East 3.5 mph - N/A   Clear
5:33 AM 30.2 °F - 28.4 °F 93% 29.98 in 10.0 mi Calm Calm - N/A   Clear
5:54 AM 30.2 °F 26.7 °F 28.4 °F 93% 29.98 in 10.0 mi East 3.5 mph - N/A   Clear
6:13 AM 30.2 °F 26.7 °F 28.4 °F 93% 29.99 in 10.0 mi East 3.5 mph - N/A   Clear
6:33 AM 30.2 °F 26.7 °F 28.4 °F 93% 30.00 in 10.0 mi SE 3.5 mph - N/A   Clear
6:54 AM 30.2 °F 25.4 °F 28.4 °F 93% 30.00 in 10.0 mi East 4.6 mph - N/A   Clear
7:13 AM 30.2 °F 25.4 °F 30.2 °F 100% 30.00 in 10.0 mi East 4.6 mph - N/A   Clear
7:33 AM 33.8 °F 27.7 °F 30.2 °F 87% 30.01 in 10.0 mi ESE 6.9 mph - N/A   Clear
7:54 AM 33.8 °F 28.6 °F 30.2 °F 87% 30.01 in 10.0 mi East 5.8 mph - N/A   Clear
8:13 AM 35.6 °F 29.9 °F 30.2 °F 81% 30.02 in 10.0 mi ESE 6.9 mph - N/A   Clear
8:33 AM 35.6 °F 29.2 °F 30.2 °F 81% 30.01 in 10.0 mi ESE 8.1 mph - N/A   Clear
8:54 AM 37.4 °F 33.8 °F 30.2 °F 75% 30.01 in 10.0 mi ESE 4.6 mph - N/A   Clear
9:13 AM 37.4 °F 30.3 °F 30.2 °F 75% 30.00 in 10.0 mi ESE 10.4 mph 16.1 mph N/A   Clear
9:33 AM 37.4 °F 31.4 °F 30.2 °F 75% 30.00 in 10.0 mi ESE 8.1 mph 16.1 mph N/A   Clear
9:53 AM 39.2 °F 33.6 °F 30.2 °F 70% 30.01 in 10.0 mi East 8.1 mph - N/A   Clear
10:13 AM 41.0 °F 36.4 °F 30.2 °F 65% 30.02 in 10.0 mi SE 6.9 mph - N/A   Clear
10:33 AM 41.0 °F 35.8 °F 30.2 °F 65% 30.01 in 10.0 mi East 8.1 mph - N/A   Clear
10:53 AM 41.0 °F 35.2 °F 28.4 °F 61% 30.01 in 10.0 mi ESE 9.2 mph 17.3 mph N/A   Clear
11:14 AM 42.8 °F 37.5 °F 30.2 °F 61% 30.00 in 10.0 mi East 9.2 mph 16.1 mph N/A   Clear
11:33 AM 42.8 °F 37.5 °F 28.4 °F 57% 30.00 in 10.0 mi East 9.2 mph 17.3 mph N/A   Clear
11:53 AM 42.8 °F 37.0 °F 28.4 °F 57% 29.99 in 10.0 mi ESE 10.4 mph 16.1 mph N/A   Clear
12:14 PM 42.8 °F 36.6 °F 28.4 °F 57% 29.99 in 10.0 mi East 11.5 mph 19.6 mph N/A   Clear
12:33 PM 42.8 °F 35.8 °F 28.4 °F 57% 29.98 in 10.0 mi East 13.8 mph 18.4 mph N/A   Clear
12:53 PM 42.8 °F 36.6 °F 28.4 °F 57% 29.98 in 10.0 mi East 11.5 mph 17.3 mph N/A   Clear
1:13 PM 42.8 °F 37.0 °F 26.6 °F 53% 29.97 in 10.0 mi East 10.4 mph 19.6 mph N/A   Clear
1:33 PM 44.6 °F 38.4 °F 28.4 °F 53% 29.97 in 10.0 mi ESE 12.7 mph 18.4 mph N/A   Clear
1:53 PM 46.4 °F 40.1 °F 28.4 °F 50% 29.97 in 10.0 mi ESE 15.0 mph 20.7 mph N/A   Clear
2:13 PM 46.4 °F 41.1 °F 28.4 °F 50% 29.96 in 10.0 mi East 11.5 mph 16.1 mph N/A   Clear
2:33 PM 46.4 °F 41.5 °F 26.6 °F 46% 29.97 in 10.0 mi East 10.4 mph 17.3 mph N/A   Clear
2:53 PM 46.4 °F 41.5 °F 28.4 °F 50% 29.96 in 10.0 mi East 10.4 mph 16.1 mph N/A   Clear
3:13 PM 48.2 °F - 28.4 °F 46% 29.95 in 10.0 mi ESE 9.2 mph 16.1 mph N/A   Clear
3:33 PM 48.2 °F - 26.6 °F 43% 29.93 in 10.0 mi ESE 12.7 mph 19.6 mph N/A   Clear
3:53 PM 48.2 °F - 26.6 °F 43% 29.93 in 10.0 mi East 12.7 mph 19.6 mph N/A   Clear
4:14 PM 50.0 °F - 26.6 °F 40% 29.91 in 10.0 mi East 11.5 mph 18.4 mph N/A   Clear
4:33 PM 50.0 °F - 26.6 °F 40% 29.91 in 10.0 mi East 12.7 mph 18.4 mph N/A   Clear
4:53 PM 50.0 °F - 26.6 °F 40% 29.91 in 10.0 mi East 13.8 mph 19.6 mph N/A   Clear
5:14 PM 48.2 °F - 26.6 °F 43% 29.91 in 10.0 mi East 11.5 mph 19.6 mph N/A   Clear
5:33 PM 48.2 °F - 26.6 °F 43% 29.90 in 10.0 mi East 11.5 mph 23.0 mph N/A   Clear
5:53 PM 48.2 °F - 26.6 °F 43% 29.90 in 10.0 mi East 11.5 mph 24.2 mph N/A   Clear
6:13 PM 48.2 °F - 26.6 °F 43% 29.91 in 10.0 mi East 8.1 mph 26.5 mph N/A   Clear
6:34 PM 48.2 °F - 26.6 °F 43% 29.91 in 10.0 mi East 15.0 mph 23.0 mph N/A   Clear
6:53 PM 48.2 °F - 26.6 °F 43% 29.93 in 10.0 mi East 11.5 mph 21.9 mph N/A   Clear
7:13 PM 46.4 °F 41.5 °F 26.6 °F 46% 29.92 in 10.0 mi East 10.4 mph 19.6 mph N/A   Clear
7:34 PM 46.4 °F 41.1 °F 28.4 °F 50% 29.90 in 10.0 mi East 11.5 mph 18.4 mph N/A   Clear
7:53 PM 46.4 °F 41.9 °F 28.4 °F 50% 29.90 in 10.0 mi East 9.2 mph 17.3 mph N/A   Clear
8:13 PM 44.6 °F 38.8 °F 30.2 °F 57% 29.91 in 10.0 mi East 11.5 mph 20.7 mph N/A   Clear
8:34 PM 44.6 °F 40.7 °F 30.2 °F 57% 29.93 in 10.0 mi East 6.9 mph - N/A   Clear
8:53 PM 42.8 °F 36.6 °F 30.2 °F 61% 29.95 in 10.0 mi East 11.5 mph 17.3 mph N/A   Scattered Clouds
9:13 PM 42.8 °F 36.6 °F 28.4 °F 57% 29.96 in 10.0 mi East 11.5 mph 21.9 mph N/A   Scattered Clouds
9:33 PM 42.8 °F 37.5 °F 28.4 °F 57% 29.97 in 10.0 mi East 9.2 mph 17.3 mph N/A   Scattered Clouds
9:53 PM 41.0 °F 34.3 °F 28.4 °F 61% 29.97 in 10.0 mi East 11.5 mph 19.6 mph N/A   Mostly Cloudy
10:13 PM 41.0 °F 35.2 °F 28.4 °F 61% 29.96 in 10.0 mi East 9.2 mph 20.7 mph N/A   Overcast
10:33 PM 39.2 °F 33.6 °F 28.4 °F 65% 29.96 in 10.0 mi East 8.1 mph 16.1 mph N/A   Overcast
10:53 PM 39.2 °F 33.0 °F 28.4 °F 65% 29.96 in 10.0 mi East 9.2 mph 19.6 mph N/A   Overcast
11:13 PM 39.2 °F 31.6 °F 28.4 °F 65% 29.95 in 10.0 mi East 12.7 mph 18.4 mph N/A   Overcast
11:33 PM 37.4 °F 31.4 °F 28.4 °F 70% 29.95 in 10.0 mi East 8.1 mph 19.6 mph N/A   Overcast
11:53 PM 37.4 °F 30.8 °F 30.2 °F 75% 29.92 in 10.0 mi East 9.2 mph 20.7 mph N/A Rain Light Rain